Home > Weather > Las Cruces > Past weeks

Flag for U.S.A. Weather for the Past 2 Weeks in Las Cruces, New Mexico, U.S.A.

Now
65 °F

Sunny.


Feels Like: 65 °F
Forecast: 33 / 68 °F
Wind: No wind

Location: Las Cruces International

Current Time: Feb 10, 2016 at 1:41:41 PM

Latest Report: Feb 10, 2016 at 12:55 PM


Visibility: 10 mi

Pressure: 30.35 "Hg (26.41 "Hg at 1187m altitude)

Humidity: 15%

Dew point: 16 °F

Location of Las CrucesLocation

Historic Weather in Las Cruces — Graph

°F

Las Cruces Temperature Yesterday

Maximum temperature yesterday: 63 °F (at 3:55 PM)
Minimum temperature yesterday: 30 °F (at 5:55 AM)
Average temperature yesterday: 45 °F

High & Low Weather Summary for the Past Weeks

 TemperatureHumidityPressure
High69 °F (Jan 30, 1:55 PM)98% (Feb 1, 8:35 AM)30.49 "Hg (Feb 1, 8:35 AM)
Low16 °F (Feb 3, 5:35 AM)8% (Feb 5, 4:15 PM)29.62 "Hg (Feb 1, 5:55 AM)
Average41 °F39%30.20 "Hg
* Reported Jan 26 12:15 PM — Feb 10 12:15 PM, Las Cruces, Weather by CustomWeather, © 2016

Note: Actual official high and low records may vary slightly from our data, if they occured in-between our weather recording intervals... More about our weather records

Advertising

Las Cruces Weather History for the Previous 24 Hours

 ConditionsComfort  
Time TempWeatherWind HumidityBarometerVisibility
12:15 PM
Wed, Feb 10
64 °FSunny.3 mph15%30.37 "Hg10 mi
11:55 AM62 °FSunny.No wind16%30.39 "Hg10 mi
11:35 AM62 °FSunny.No wind17%30.40 "Hg10 mi
11:15 AM60 °FSunny.6 mph20%30.40 "Hg10 mi
10:55 AM58 °FSunny.5 mph22%30.41 "Hg10 mi
10:35 AM57 °FSunny.6 mph24%30.42 "Hg10 mi
10:15 AM55 °FSunny.3 mph26%30.43 "Hg10 mi
9:55 AM53 °FSunny.No wind28%30.43 "Hg10 mi
9:35 AM53 °FSunny.5 mph30%30.44 "Hg10 mi
9:15 AM51 °FSunny.No wind32%30.43 "Hg10 mi
8:55 AM49 °FSunny.No wind34%30.43 "Hg10 mi
8:35 AM50 °FSunny.No wind33%30.42 "Hg10 mi
8:15 AM47 °FSunny.No wind35%30.41 "Hg10 mi
7:55 AM43 °FSunny.3 mph42%30.41 "Hg10 mi
7:35 AM37 °FSunny.5 mph51%30.40 "Hg10 mi
7:15 AM32 °FSunny.8 mph58%30.40 "Hg10 mi
6:55 AM30 °FSunny.7 mph61%30.40 "Hg10 mi
6:35 AM31 °FClear.5 mph60%30.39 "Hg10 mi
6:15 AM31 °FClear.3 mph59%30.38 "Hg10 mi
5:55 AM29 °FClear.5 mph63%30.38 "Hg10 mi
5:35 AM30 °FClear.3 mph60%30.38 "Hg10 mi
5:15 AM31 °FClear.5 mph59%30.37 "Hg10 mi
4:55 AM32 °FClear.No wind59%30.37 "Hg10 mi
4:35 AM30 °FClear.3 mph61%30.36 "Hg10 mi
4:15 AM31 °FClear.5 mph58%30.36 "Hg10 mi
3:55 AM30 °FClear.3 mph59%30.36 "Hg10 mi
3:35 AM32 °FClear.No wind56%30.36 "Hg10 mi
3:15 AM33 °FClear.No wind52%30.36 "Hg10 mi
2:55 AM33 °FClear.3 mph52%30.36 "Hg10 mi
2:35 AM31 °FClear.No wind54%30.36 "Hg10 mi
2:15 AM35 °FClear.No wind48%30.37 "Hg10 mi
1:55 AM36 °FClear.No wind46%30.37 "Hg10 mi
1:35 AM38 °FClear.No wind43%30.37 "Hg10 mi
1:15 AM38 °FClear.No wind44%30.37 "Hg10 mi
12:55 AM36 °FClear.3 mph47%30.36 "Hg10 mi
12:35 AM37 °FClear.6 mph45%30.36 "Hg10 mi
12:15 AM37 °FClear.5 mph45%30.36 "Hg10 mi
11:55 PM
Tue, Feb 9
36 °FClear.6 mph46%30.36 "Hg10 mi
11:35 PM36 °FClear.7 mph45%30.36 "Hg10 mi
11:15 PM38 °FClear.5 mph42%30.36 "Hg10 mi
10:55 PM39 °FClear.5 mph40%30.36 "Hg10 mi
10:15 PM38 °FClear.No wind42%30.36 "Hg10 mi
9:55 PM36 °FClear.3 mph43%30.36 "Hg10 mi
9:15 PM37 °FClear.No wind41%30.35 "Hg10 mi
8:55 PM39 °FClear.No wind39%30.34 "Hg10 mi
7:55 PM40 °FClear.3 mph35%30.33 "Hg10 mi
7:15 PM41 °FClear.No wind33%30.32 "Hg10 mi
6:35 PM50 °FClear.3 mph26%30.31 "Hg10 mi
6:15 PM55 °FClear.3 mph22%30.31 "Hg10 mi
5:55 PM56 °FClear.3 mph21%30.31 "Hg10 mi
5:15 PM62 °FSunny.3 mph17%30.30 "Hg10 mi
4:55 PM62 °FSunny.No wind16%30.30 "Hg10 mi
4:35 PM63 °FSunny.No wind16%30.30 "Hg10 mi
4:15 PM63 °FSunny.No wind16%30.29 "Hg10 mi
3:55 PM63 °FSunny.No wind16%30.29 "Hg10 mi
3:15 PM62 °FSunny.No wind16%30.30 "Hg10 mi
2:15 PM62 °FSunny.5 mph17%30.32 "Hg10 mi
1:55 PM62 °FSunny.3 mph17%30.32 "Hg10 mi
1:35 PM60 °FSunny.No wind17%30.33 "Hg10 mi
1:15 PM60 °FSunny.5 mph18%30.34 "Hg10 mi
Weather by CustomWeather, © 2016

See weather overviewHow to use our weather pages